TimeCDT,TemperatureF,Dew PointF,Humidity,Sea Level PressureIn,VisibilityMPH,Wind Direction,Wind SpeedMPH,Gust SpeedMPH,PrecipitationIn,Events,Conditions,WindDirDegrees,DateUTC
12:53 AM,81.0,70.0,69,29.98,10.0,SSE,10.4,-,N/A,,Clear,160,2012-09-01 05:53:00
1:53 AM,80.1,71.1,74,29.99,10.0,South,12.7,20.7,N/A,,Clear,170,2012-09-01 06:53:00
2:53 AM,78.1,71.1,79,29.99,10.0,South,9.2,-,N/A,,Clear,170,2012-09-01 07:53:00
3:53 AM,77.0,71.1,82,29.99,10.0,South,8.1,-,N/A,,Clear,170,2012-09-01 08:53:00
4:53 AM,77.0,71.1,82,29.99,8.0,South,6.9,-,N/A,,Clear,180,2012-09-01 09:53:00
5:53 AM,75.9,71.1,85,30.00,7.0,SSW,4.6,-,N/A,,Clear,200,2012-09-01 10:53:00
6:53 AM,75.9,71.1,85,30.02,7.0,South,5.8,-,N/A,,Clear,180,2012-09-01 11:53:00
7:53 AM,77.0,72.0,84,30.04,6.0,South,5.8,-,N/A,,Haze,190,2012-09-01 12:53:00
8:53 AM,79.0,72.0,79,30.05,8.0,SSW,10.4,-,N/A,,Scattered Clouds,200,2012-09-01 13:53:00
9:00 AM,79.0,72.0,79,30.11,8.0,SSW,8.1,-,N/A,,Mostly Cloudy,200,2012-09-01 14:00:00
9:17 AM,81.0,72.0,74,30.11,8.0,South,10.4,17.3,N/A,,Mostly Cloudy,190,2012-09-01 14:17:00
9:33 AM,81.0,71.1,72,30.11,9.0,SSW,11.5,19.6,N/A,,Scattered Clouds,210,2012-09-01 14:33:00
9:53 AM,82.9,70.0,65,30.05,10.0,South,12.7,-,N/A,,Partly Cloudy,180,2012-09-01 14:53:00
10:29 AM,84.9,70.0,61,30.12,10.0,South,10.4,19.6,N/A,,Mostly Cloudy,190,2012-09-01 15:29:00
10:48 AM,86.0,69.8,58,30.12,10.0,SSW,11.5,19.6,N/A,,Scattered Clouds,200,2012-09-01 15:48:00
10:53 AM,86.0,69.1,57,30.06,10.0,SSW,11.5,19.6,N/A,,Scattered Clouds,210,2012-09-01 15:53:00
11:53 AM,89.1,66.9,48,30.06,10.0,SW,13.8,19.6,N/A,,Scattered Clouds,220,2012-09-01 16:53:00
12:53 PM,91.0,64.0,41,30.04,10.0,SSW,10.4,19.6,N/A,,Scattered Clouds,210,2012-09-01 17:53:00
1:53 PM,95.0,64.0,36,30.01,10.0,South,11.5,17.3,N/A,,Partly Cloudy,180,2012-09-01 18:53:00
2:53 PM,95.0,63.0,34,29.99,10.0,South,12.7,18.4,N/A,,Partly Cloudy,170,2012-09-01 19:53:00
3:53 PM,96.1,62.1,32,29.97,10.0,South,10.4,21.9,N/A,,Partly Cloudy,170,2012-09-01 20:53:00
4:53 PM,96.1,62.1,32,29.96,10.0,South,13.8,20.7,N/A,,Clear,190,2012-09-01 21:53:00
5:53 PM,96.1,61.0,31,29.95,10.0,SSW,8.1,18.4,N/A,,Clear,200,2012-09-01 22:53:00
6:53 PM,91.0,66.9,45,29.96,10.0,SSE,12.7,20.7,N/A,,Partly Cloudy,160,2012-09-01 23:53:00
7:53 PM,89.1,68.0,50,29.96,10.0,SSE,9.2,20.7,N/A,,Clear,160,2012-09-02 00:53:00
8:53 PM,86.0,66.9,53,29.97,10.0,SSE,8.1,-,N/A,,Clear,160,2012-09-02 01:53:00
9:53 PM,84.0,66.9,56,29.99,10.0,South,9.2,-,N/A,,Clear,170,2012-09-02 02:53:00
10:53 PM,82.0,68.0,62,30.00,10.0,South,6.9,-,N/A,,Clear,170,2012-09-02 03:53:00
11:53 PM,81.0,69.1,67,30.00,10.0,South,8.1,-,N/A,,Clear,170,2012-09-02 04:53:00